Eagle, AK

8:10 PM AKDT on June 25, 2017 (GMT -0800)
Eagle

Weather History for PAEG - April, 2013

Change the Weather History Date:

Friday, April 5, 2013

  Actual Average (PABN) Record (PABN)
Temperature  
Mean Temperature -3 °F -  
Max Temperature 15 °F 28 °F 48 °F (2006)
Min Temperature -20 °F 14 °F -5 °F (2003)
Degree Days  
Heating Degree Days 68    
Moisture  
Dew Point -17 °F    
Average Humidity 53    
Maximum Humidity 74    
Minimum Humidity 34    
Precipitation  
Precipitation 0.00 in - - ()
Sea Level Pressure  
Sea Level Pressure 30.01 in    
Wind  
Wind Speed 1 mph (East)    
Max Wind Speed 9 mph    
Max Gust Speed -    
Visibility 10 miles    
Events      
Averages and records for this station are not official NWS values.
T = Trace of Precipitation, MM = Missing Value Source: NWS Daily Summary

Daily Weather History Graph

Daily Weather History Graph

Search for Another Location

Airport or City:

Trip Planner

Search our weather history database for the weather conditions in past years. The results will help you decide how hot, cold, wet, or windy it might be!

Date:

Astronomy

Apr. 05, 2013 Rise Set
Actual Time 6:25 AM AKDT 8:31 PM AKDT
Civil Twilight 5:32 AM AKDT 9:24 PM AKDT
Nautical Twilight 4:21 AM AKDT 10:35 PM AKDT
Astronomical Twilight 2:31 AM AKDT 12:34 AM AKDT
Moon 5:15 AM AKDT (4/5) 2:34 PM AKDT (4/5)
Length of Visible Light 15h 51m
Length of Day
14h 06m
Waning Crescent, 22% of the Moon is Illuminated
Apr 5
Waning Crescent
Apr 10
New
Apr 18
First Quarter
Apr 25
Full
May 2
Last Quarter

Hourly Weather History & Observations

Time (AKDT) Temp. Windchill Dew Point Humidity Pressure Visibility Wind Dir Wind Speed Gust Speed Precip Events Conditions
12:53 AM -11.9 °F - -20.0 °F 67% 30.18 in 10.0 mi Calm Calm - N/A   Clear
1:53 AM -13.0 °F - -20.0 °F 71% 30.16 in 10.0 mi Calm Calm - N/A   Clear
2:53 AM -16.1 °F - -22.0 °F 74% 30.15 in 10.0 mi Calm Calm - N/A   Clear
3:53 AM -17.0 °F - -24.0 °F 70% 30.13 in 10.0 mi Calm Calm - N/A   Clear
4:53 AM -18.9 °F - -25.1 °F 74% 30.11 in 10.0 mi Calm Calm - N/A   Clear
5:53 AM -20.9 °F - -27.0 °F 73% 30.09 in 10.0 mi Calm Calm - N/A   Clear
6:53 AM -20.9 °F - -27.9 °F 70% 30.08 in 10.0 mi Calm Calm - N/A   Clear
7:53 AM -11.9 °F -21.5 °F -18.9 °F 71% 30.06 in 10.0 mi Variable 3.5 mph - N/A   Clear
8:53 AM -4.0 °F - -14.1 °F 62% 30.04 in 10.0 mi Calm Calm - N/A   Clear
9:53 AM 3.0 °F - -11.0 °F 52% 30.02 in 10.0 mi Calm Calm - N/A   Clear
10:53 AM 9.0 °F - -9.9 °F 42% 30.00 in 10.0 mi Calm Calm - N/A   Clear
11:53 AM 9.0 °F - -9.9 °F 42% 29.98 in 10.0 mi Calm Calm - N/A   Clear
12:53 PM 12.0 °F - -9.9 °F 37% 29.97 in 10.0 mi Calm Calm - N/A   Clear
1:53 PM 14.0 °F 6.5 °F -9.9 °F 34% 29.94 in 10.0 mi Variable 4.6 mph - N/A   Clear
2:53 PM 14.0 °F 5.1 °F -9.0 °F 35% 29.93 in 10.0 mi Variable 5.8 mph - N/A   Clear
3:53 PM 14.0 °F 2.0 °F -9.9 °F 34% 29.92 in 10.0 mi East 9.2 mph - N/A   Clear
4:53 PM 12.9 °F 1.6 °F -11.0 °F 34% 29.91 in 10.0 mi East 8.1 mph - N/A   Clear
5:53 PM 10.9 °F 2.9 °F -11.9 °F 35% 29.91 in 10.0 mi Variable 4.6 mph - N/A   Clear
6:53 PM 9.0 °F -0.9 °F -13.0 °F 36% 29.92 in 10.0 mi Variable 5.8 mph - N/A   Clear
7:53 PM 5.0 °F -4.1 °F -15.0 °F 39% 29.92 in 10.0 mi ESE 4.6 mph - N/A   Clear
8:53 PM 1.9 °F - -16.1 °F 43% 29.92 in 10.0 mi Calm Calm - N/A   Clear
9:53 PM -6.0 °F - -18.9 °F 54% 29.93 in 10.0 mi Calm Calm - N/A   Clear
10:53 PM -9.9 °F - -22.0 °F 55% 29.93 in 10.0 mi Calm Calm - N/A   Clear
11:53 PM -14.1 °F - -24.0 °F 61% 29.94 in 10.0 mi Calm Calm - N/A   Clear